Terug naar catalogus

STARLINK-33679

ActiefCommunicatieVLEO
NORAD 63460·PAYLOAD·🇺🇸 United States

Gelanceerd Apr 6, 2025 vanaf Cape Canaveral Space Force Station

Loading…

Volgende Passages (komende 24 uur)

TLE

VersSource: CelesTrak SupGP

Epoch: Sep 15, 2026, 03:44 UTC

1 63460C 25070A   26258.15604167 -.00019609  00000+0 -71023-3 0  2586
2 63460  42.9999 270.1133 0001337 267.5984 306.4988 15.27588275    14

Volg STARLINK-33679 in realtime met AllMySat

Download on the App Store